User: anonymous   Login
Location: Vancouver
(49.2500°N, 123.1330°W)
Time: 07:35:22
(UTC-08:00)
Language:

AO-27 - Orbit

View from above orbital plane
View from above orbital plane
View from above satellite
View from above satellite

Ground track
Ground track

The orbit data is extracted from the following two-line orbital elements,

1 22825U 93061C   18016.17929701 -.00000005  00000-0  16005-4 0  9992
2 22825  98.8430 349.7050 0009455  72.1033 288.1179 14.30019376267847
Epoch (UTC): 16 January 2018 04:18:11
Eccentricity: 0.0009455
inclination: 98.8430°
perigee height: 785 km
apogee height: 798 km
right ascension of ascending node: 349.7050°
argument of perigee: 72.1033°
revolutions per day: 14.30019376
mean anomaly at epoch: 288.1179°
orbit number at epoch: 26784

The dashed part of the orbit path shows where the satellite is in the earth's shadow,  

DLR